Location: Casco Millpond
(44.5581°N, 87.6111°W)
Time: 03:18:53
(UTC+00:00)

ARIANE 6 FM1 Upper Stage - Visible Passes

Search period start: 09 March 2026 00:00
Search period end: 19 March 2026 00:00
Orbit: 523 x 607 km, 62.0° (Epoch: 8 March)

Date Brightness Start Highest point End Pass type
(mag) Time Alt. Az. Time Alt. Az. Time Alt. Az.
9 Mar 3.6 10:44:38 10° SSW 10:48:35 45° SE 10:52:28 10° NE visible
10 Mar 2.8 10:45:15 17° SSW 10:48:20 68° SE 10:52:22 10° NE visible
11 Mar 5.5 09:09:40 11° ESE 09:09:43 11° ESE 09:11:02 10° E visible
11 Mar 2.5 10:45:42 24° SW 10:48:08 83° NW 10:52:11 10° NE visible
12 Mar 5.2 09:09:58 16° ESE 09:09:58 16° ESE 09:11:58 10° ENE visible
12 Mar 2.7 10:45:59 28° WSW 10:47:56 57° NW 10:51:55 10° NNE visible
13 Mar 4.9 09:10:08 21° E 09:10:08 21° E 09:12:16 10° ENE visible
13 Mar 3.2 10:46:08 27° W 10:47:46 41° NW 10:51:36 10° NNE visible
14 Mar 4.7 09:10:12 25° ENE 09:10:12 25° ENE 09:12:19 10° NE visible
14 Mar 3.6 10:46:11 24° WNW 10:47:38 30° NW 10:51:14 10° NNE visible
15 Mar 4.6 09:10:09 28° ENE 09:10:09 28° ENE 09:12:14 10° NE visible
15 Mar 4.0 10:46:09 20° WNW 10:47:31 23° NW 10:50:47 10° NNE visible
16 Mar 4.5 09:10:02 28° NE 09:10:02 28° NE 09:12:03 10° NE visible
16 Mar 4.4 10:46:01 16° WNW 10:47:26 18° NNW 10:50:18 10° NNE visible
17 Mar 4.5 09:09:50 27° NNE 09:09:50 27° NNE 09:11:47 10° NE visible
17 Mar 4.7 10:45:50 12° NW 10:47:22 15° NNW 10:49:43 10° N visible
18 Mar 4.6 09:09:36 25° NNE 09:09:36 25° NNE 09:11:26 10° NNE visible
18 Mar 4.9 10:45:42 10° NW 10:47:21 12° NNW 10:48:59 10° N visible
